Flag for U.S.A. Weather past 2 weeks in Winston-Salem, North Carolina, U.S.A.

Now
40 °F

Overcast.


Feels Like: 34 °F
Forecast: 38 / 41 °F
Wind: 9 mph from Northeast

Location: Smith Reynolds Airport

Current Time: Dec 22, 2014 at 1:48:25 AM

Latest Report: Dec 22, 2014 at 12:54 AM


Visibility: 10 mi

Pressure: 30.20 "Hg

Humidity: 70%

Dew point: 31 °F

Location of Winston-SalemLocation

Historic Weather in Winston-Salem — Graph

°F

Winston-Salem temperature yesterday

Maximum temperature yesterday: 47 °F (at 2:54 PM)
Minimum temperature yesterday: 36 °F (at 7:54 AM)
Average temperature yesterday: 42 °F

Past Weeks' High & Low Weather Summary

 TemperatureHumidityPressure
High61 °F (Dec 13, 2:54 PM)97% (Dec 9, 7:54 AM)30.46 "Hg (Dec 9, 7:54 AM)
Low28 °F (Dec 11, 6:54 AM)16% (Dec 12, 3:54 PM)29.88 "Hg (Dec 16, 2:54 PM)
Average43 °F55%30.14 "Hg
* Reported Dec 6 11:54 PM — Dec 21 11:54 PM, Winston-Salem, Weather by CustomWeather, © 2014

Note: Actual official high and low records may vary slightly from our data, if they occured in-between our weather recording intervals... More about our weather records

Advertising

Winston-Salem weather history for previous 24 hours

 ConditionsComfort  
Time TempWeatherWind HumidityBarometerVisibility
11:54 PM
Dec 21
40 °FOvercast.6 mph73%30.23 "Hg10 mi
10:54 PM41 °FOvercast.7 mph70%30.23 "Hg10 mi
9:54 PM41 °FOvercast.6 mph74%30.23 "Hg10 mi
8:54 PM41 °FPassing clouds.6 mph76%30.23 "Hg10 mi
7:54 PM42 °FPassing clouds.6 mph73%30.24 "Hg10 mi
6:54 PM42 °FClear.3 mph73%30.23 "Hg9 mi
5:54 PM44 °FOvercast.3 mph68%30.23 "Hg10 mi
4:54 PM45 °FMostly cloudy.3 mph65%30.22 "Hg8 mi
4:02 PM46 °FOvercast.7 mph63%30.22 "Hg8 mi
3:54 PM47 °FMostly cloudy.6 mph61%30.23 "Hg8 mi
2:54 PM47 °FOvercast.No wind61%30.23 "Hg8 mi
1:54 PM46 °FOvercast.No wind63%30.23 "Hg8 mi
12:54 PM46 °FOvercast.6 mph63%30.24 "Hg8 mi
11:54 AM45 °FOvercast.3 mph68%30.28 "Hg7 mi
10:54 AM43 °FMostly cloudy.3 mph71%30.31 "Hg7 mi
9:54 AM41 °FOvercast.3 mph76%30.31 "Hg3 mi
8:54 AM38 °FFog.No wind86%30.30 "Hg4 mi
7:54 AM36 °FFog.No wind85%30.29 "Hg4 mi
6:54 AM38 °FOvercast.3 mph83%30.28 "Hg6 mi
5:54 AM38 °FOvercast.No wind83%30.26 "Hg6 mi
4:54 AM38 °FOvercast.No wind83%30.24 "Hg7 mi
3:54 AM39 °FOvercast.No wind79%30.25 "Hg8 mi
2:54 AM39 °FOvercast.No wind79%30.27 "Hg7 mi
1:54 AM38 °FMostly cloudy.No wind83%30.27 "Hg7 mi
Weather by CustomWeather, © 2014

See weather overviewHow to use our weather pages